TimeEDT,TemperatureF,Dew PointF,Humidity,Sea Level PressureIn,VisibilityMPH,Wind Direction,Wind SpeedMPH,Gust SpeedMPH,PrecipitationIn,Events,Conditions,WindDirDegrees,DateUTC
12:54 AM,75.9,66.9,74,30.02,10.0,SSW,11.5,17.3,N/A,,Clear,210,2013-06-24 04:54:00
1:54 AM,75.0,66.0,73,30.01,10.0,SSW,5.8,-,N/A,,Clear,210,2013-06-24 05:54:00
2:54 AM,73.9,66.9,79,30.00,10.0,SSW,6.9,-,N/A,,Mostly Cloudy,210,2013-06-24 06:54:00
3:54 AM,73.0,66.9,81,29.99,10.0,SSW,8.1,-,N/A,,Clear,210,2013-06-24 07:54:00
4:54 AM,72.0,66.9,84,29.98,10.0,SSW,8.1,-,N/A,,Clear,210,2013-06-24 08:54:00
5:54 AM,72.0,66.9,84,29.98,10.0,SW,6.9,-,N/A,,Clear,220,2013-06-24 09:54:00
6:54 AM,73.9,68.0,82,29.98,10.0,SW,9.2,-,N/A,,Clear,230,2013-06-24 10:54:00
7:54 AM,75.9,68.0,76,29.99,10.0,SW,6.9,-,N/A,,Clear,220,2013-06-24 11:54:00
8:54 AM,82.0,69.1,65,29.98,10.0,WSW,8.1,-,N/A,,Clear,250,2013-06-24 12:54:00
9:54 AM,84.9,70.0,61,29.96,10.0,West,9.2,-,N/A,,Clear,260,2013-06-24 13:54:00
10:54 AM,87.1,69.1,55,29.96,10.0,West,9.2,-,N/A,,Clear,260,2013-06-24 14:54:00
11:54 AM,90.0,68.0,48,29.95,10.0,WNW,8.1,18.4,N/A,,Clear,300,2013-06-24 15:54:00
12:54 PM,91.9,66.9,44,29.94,10.0,WNW,9.2,16.1,N/A,,Clear,300,2013-06-24 16:54:00
1:54 PM,91.0,64.9,42,29.94,10.0,WNW,6.9,-,N/A,,Clear,290,2013-06-24 17:54:00
2:54 PM,93.9,66.0,40,29.91,10.0,West,9.2,-,N/A,,Clear,260,2013-06-24 18:54:00
3:54 PM,93.0,63.0,37,29.89,10.0,West,9.2,-,N/A,,Clear,260,2013-06-24 19:54:00
4:54 PM,91.9,66.0,42,29.88,10.0,West,10.4,-,N/A,,Clear,260,2013-06-24 20:54:00
5:54 PM,91.9,68.0,45,29.88,10.0,West,10.4,17.3,N/A,,Partly Cloudy,260,2013-06-24 21:54:00
6:51 PM,87.8,66.2,49,29.88,10.0,NNW,17.3,28.8,N/A,Thunderstorm,Thunderstorm,340,2013-06-24 22:51:00
6:54 PM,86.0,66.0,51,29.88,10.0,NNW,17.3,28.8,N/A,Thunderstorm,Thunderstorm,340,2013-06-24 22:54:00
7:13 PM,78.8,66.2,65,29.96,1.8,NW,9.2,16.1,0.14,Rain-Thunderstorm,Heavy Thunderstorms and Rain,310,2013-06-24 23:13:00
7:20 PM,73.4,66.2,78,29.97,0.5,WSW,13.8,31.1,0.39,Rain-Thunderstorm,Heavy Thunderstorms and Rain,250,2013-06-24 23:20:00
7:24 PM,71.6,66.2,83,29.96,0.5,North,10.4,31.1,0.57,Rain-Thunderstorm,Heavy Thunderstorms and Rain,10,2013-06-24 23:24:00
7:32 PM,71.6,66.2,83,29.92,1.0,NNE,12.7,18.4,0.66,Rain-Thunderstorm,Heavy Thunderstorms and Rain,30,2013-06-24 23:32:00
7:36 PM,73.4,66.2,78,29.92,3.0,NNE,11.5,-,0.66,Rain-Thunderstorm,Light Thunderstorms and Rain,20,2013-06-24 23:36:00
7:54 PM,73.0,68.0,84,29.91,10.0,ENE,5.8,-,0.66,Thunderstorm,Thunderstorm,70,2013-06-24 23:54:00
8:28 PM,71.6,68.0,88,29.95,10.0,South,8.1,-,0.00,,Partly Cloudy,190,2013-06-25 00:28:00
8:54 PM,72.0,68.0,87,29.95,10.0,SW,4.6,-,0.00,Rain,Light Rain,220,2013-06-25 00:54:00
9:54 PM,73.0,68.0,84,29.96,10.0,SSW,5.8,-,0.00,Rain,Light Rain,210,2013-06-25 01:54:00
10:54 PM,73.0,66.9,81,29.95,10.0,SW,3.5,-,0.00,Rain,Light Rain,230,2013-06-25 02:54:00
11:54 PM,72.0,66.9,84,29.93,10.0,SSW,4.6,-,0.00,,Clear,210,2013-06-25 03:54:00